| time (UTC) | temp C | wind direction | speed KPH | gust KPH | rain 1hr cm | rain 24hr cm | rain mn cm | humidity % | barometer mb |
| 20260502210921 | 12 | 309 | 0.0 | 0.0 | 0.08 | 0.15 | 0.18 | 89 | 1010.8 |
| 20260502210419 | 12 | 297 | 0.0 | 0.0 | 0.10 | 0.15 | 0.15 | 88 | 1010.9 |
| 20260502205919 | 12 | 301 | 0.0 | 0.0 | 0.10 | 0.15 | 0.15 | 88 | 1010.9 |
| 20260502205419 | 13 | 301 | 0.0 | 0.0 | 0.13 | 0.15 | 0.15 | 87 | 1011.0 |
| 20260502204916 | 13 | 311 | 0.0 | 0.0 | 0.15 | 0.15 | 0.15 | 87 | 1010.9 |
| 20260502204415 | 13 | 311 | 0.0 | 0.0 | 0.13 | 0.15 | 0.15 | 86 | 1011.0 |
| 20260502203916 | 13 | 273 | 0.0 | 0.0 | 0.15 | 0.15 | 0.15 | 85 | 1011.0 |
| 20260502203413 | 13 | 228 | 0.0 | 0.0 | 0.15 | 0.15 | 0.15 | 85 | 1011.1 |
| 20260502202912 | 13 | 224 | 0.0 | 0.0 | 0.13 | 0.13 | 0.13 | 84 | 1011.1 |
| 20260502202412 | 13 | 224 | 0.0 | 0.0 | 0.13 | 0.13 | 0.13 | 83 | 1011.2 |
| 20260502201910 | 13 | 224 | 0.0 | 0.0 | 0.10 | 0.10 | 0.10 | 82 | 1011.2 |
| 20260502201409 | 13 | 224 | 0.0 | 0.0 | 0.10 | 0.10 | 0.10 | 81 | 1011.2 |
| 20260502200909 | 14 | 224 | 0.0 | 0.0 | 0.08 | 0.08 | 0.08 | 79 | 1011.3 |
| 20260502200411 | 14 | 193 | 0.0 | 0.0 | 0.05 | 0.05 | 0.08 | 78 | 1011.3 |
| 20260502195904 | 14 | 176 | 0.0 | 0.0 | 0.05 | 0.05 | 0.05 | 77 | 1011.4 |
| 20260502195400 | 15 | 185 | 0.0 | 0.0 | 0.05 | 0.05 | 0.05 | 76 | 1011.4 |
| 20260502194859 | 15 | 174 | 0.0 | 0.0 | 0.03 | 0.03 | 0.03 | 75 | 1011.4 |
| 20260502194400 | 15 | 183 | 0.0 | 0.0 | 0.03 | 0.03 | 0.03 | 73 | 1011.3 |
| 20260502193858 | 15 | 165 | 0.0 | 0.0 | 0.00 | 0.00 | 0.00 | 71 | 1011.3 |
| 20260502193358 | 15 | 181 | 0.0 | 0.0 | 0.00 | 0.00 | 0.00 | 70 | 1011.2 |
| 20260502192857 | 15 | 143 | 0.0 | 0.0 | 0.00 | 0.00 | 0.00 | 69 | 1011.2 |
| 20260502192400 | 15 | 144 | 0.0 | 0.0 | 0.00 | 0.00 | 0.00 | 68 | 1011.2 |
| 20260502191857 | 15 | 143 | 0.0 | 0.0 | 0.00 | 0.00 | 0.00 | 68 | 1011.2 |
| 20260502191358 | 15 | 141 | 0.0 | 0.0 | 0.00 | 0.00 | 0.00 | 65 | 1011.2 |
| 20260502191127 | 15 | 141 | 0.0 | 0.0 | 0.00 | 0.00 | 0.00 | 65 | 1011.1 |
| 20260502190355 | 15 | 141 | 0.0 | 0.0 | 0.00 | 0.00 | 0.00 | 64 | 1011.0 |
| 20260502185855 | 15 | 141 | 0.0 | 0.0 | 0.00 | 0.00 | 0.00 | 64 | 1011.0 |
| 20260502185354 | 15 | 141 | 0.0 | 0.0 | 0.00 | 0.00 | 0.00 | 65 | 1011.0 |
| 20260502184855 | 15 | 141 | 0.0 | 0.0 | 0.00 | 0.00 | 0.00 | 65 | 1011.0 |
| 20260502184355 | 15 | 141 | 0.0 | 0.0 | 0.00 | 0.00 | 0.00 | 65 | 1011.0 |
| 20260502183853 | 15 | 141 | 0.0 | 0.0 | 0.00 | 0.00 | 0.00 | 64 | 1011.0 |
| 20260502183354 | 15 | 151 | 0.0 | 0.0 | 0.00 | 0.00 | 0.00 | 65 | 1011.0 |
| 20260502182854 | 15 | 121 | 0.0 | 0.0 | 0.00 | 0.00 | 0.00 | 64 | 1011.1 |
| 20260502182352 | 16 | 152 | 0.0 | 0.0 | 0.00 | 0.00 | 0.00 | 64 | 1011.1 |
| 20260502182111 | 16 | 158 | 0.0 | 0.0 | 0.00 | 0.03 | 0.00 | 64 | 1011.1 |
| 20260502181353 | 16 | 67 | 0.0 | 0.0 | 0.00 | 0.03 | 0.00 | 64 | 1011.2 |
| 20260502180849 | 16 | 57 | 0.0 | 0.0 | 0.00 | 0.05 | 0.00 | 64 | 1011.2 |
| 20260502180349 | 16 | 153 | 0.0 | 0.0 | 0.00 | 0.05 | 0.00 | 63 | 1011.2 |
| 20260502170347 | 16 | 158 | 0.0 | 0.0 | 0.00 | 0.08 | 0.00 | 63 | 1011.5 |
| 20260502164341 | 16 | 165 | 0.0 | 0.0 | 0.00 | 0.15 | 0.00 | 63 | 1011.5 |
| 20260502164105 | 16 | 138 | 0.0 | 0.0 | 0.00 | 0.15 | 0.00 | 62 | 1011.5 |
| 20260502163342 | 16 | 118 | 0.0 | 0.0 | 0.00 | 0.15 | 0.00 | 62 | 1011.5 |
| 20260502162842 | 16 | 106 | 0.0 | 0.0 | 0.00 | 0.15 | 0.00 | 61 | 1011.6 |
| 20260502162340 | 16 | 122 | 0.0 | 0.0 | 0.00 | 0.15 | 0.00 | 61 | 1011.7 |
| 20260502161839 | 16 | 75 | 0.0 | 0.0 | 0.00 | 0.15 | 0.00 | 61 | 1011.8 |
| 20260502161337 | 16 | 92 | 0.0 | 0.0 | 0.00 | 0.15 | 0.00 | 60 | 1011.8 |
| 20260502161059 | 17 | 58 | 0.0 | 0.0 | 0.00 | 0.15 | 0.00 | 60 | 1011.9 |
| 20260502160337 | 17 | 109 | 0.0 | 0.0 | 0.00 | 0.15 | 0.00 | 60 | 1012.0 |
| 20260502151829 | 17 | 100 | 0.0 | 0.0 | 0.00 | 0.15 | 0.00 | 59 | 1012.4 |
| 20260502151331 | 17 | 148 | 0.0 | 0.0 | 0.00 | 0.15 | 0.00 | 58 | 1012.4 |
| 20260502150829 | 17 | 129 | 0.0 | 0.0 | 0.00 | 0.15 | 0.00 | 58 | 1012.5 |
| 20260502150555 | 17 | 113 | 0.0 | 0.0 | 0.00 | 0.15 | 0.00 | 58 | 1012.4 |
| 20260502140106 | 18 | 146 | 0.0 | 0.0 | 0.00 | 0.15 | 0.00 | 55 | 1013.6 |
| 20260502130321 | 16 | 60 | 0.0 | 0.0 | 0.00 | 0.15 | 0.00 | 66 | 1013.7 |
| 20260502123319 | 16 | 141 | 0.0 | 0.0 | 0.00 | 0.15 | 0.00 | 69 | 1014.3 |
| 20260502122818 | 16 | 165 | 0.0 | 0.0 | 0.00 | 0.15 | 0.00 | 69 | 1014.4 |
| 20260502122804 | 16 | 44 | 0.0 | 0.0 | 0.00 | 0.15 | 0.00 | 70 | 1014.4 |
| 20260502121817 | 15 | 111 | 0.0 | 0.0 | 0.00 | 0.15 | 0.00 | 69 | 1014.5 |
| 20260502121321 | 16 | 121 | 0.0 | 0.0 | 0.00 | 0.15 | 0.00 | 68 | 1014.6 |
| 20260502121036 | 16 | 191 | 0.0 | 0.0 | 0.00 | 0.15 | 0.00 | 68 | 1014.7 |
| 20260502120313 | 16 | 135 | 0.0 | 0.0 | 0.00 | 0.15 | 0.00 | 70 | 1014.7 |
| 20260502115813 | 16 | 193 | 0.0 | 0.0 | 0.00 | 0.15 | 0.00 | 70 | 1014.8 |
| 20260502115314 | 16 | 114 | 0.0 | 0.0 | 0.00 | 0.15 | 0.00 | 70 | 1014.9 |
| 20260502114814 | 15 | 161 | 0.0 | 0.0 | 0.00 | 0.15 | 0.00 | 72 | 1014.9 |
| 20260502114751 | 15 | 150 | 0.0 | 0.0 | 0.00 | 0.15 | 0.00 | 72 | 1015.0 |
| 20260502114039 | 15 | 57 | 0.0 | 0.0 | 0.00 | 0.15 | 0.00 | 74 | 1015.0 |
| 20260502113314 | 15 | 118 | 0.0 | 0.0 | 0.00 | 0.15 | 0.00 | 73 | 1015.0 |
| 20260502112813 | 15 | 139 | 0.0 | 0.0 | 0.00 | 0.15 | 0.00 | 74 | 1015.2 |
| 20260502112309 | 14 | 153 | 0.0 | 0.0 | 0.00 | 0.15 | 0.00 | 74 | 1015.1 |
| 20260502111810 | 14 | 110 | 0.0 | 0.0 | 0.00 | 0.15 | 0.00 | 74 | 1015.2 |
| 20260502111748 | 14 | 153 | 0.0 | 0.0 | 0.00 | 0.15 | 0.00 | 76 | 1015.2 |
| 20260502110810 | 14 | 68 | 0.0 | 0.0 | 0.00 | 0.15 | 0.00 | 77 | 1015.3 |
| 20260502110309 | 13 | 96 | 0.0 | 0.0 | 0.00 | 0.15 | 0.00 | 77 | 1015.3 |
| 20260502105809 | 13 | 186 | 0.0 | 0.0 | 0.00 | 0.15 | 0.00 | 79 | 1015.3 |
| 20260502105800 | 13 | 143 | 0.0 | 0.0 | 0.00 | 0.15 | 0.00 | 78 | 1015.3 |
| 20260502104809 | 13 | 141 | 0.0 | 0.0 | 0.00 | 0.15 | 0.00 | 78 | 1015.3 |
| 20260502104309 | 13 | 85 | 0.0 | 0.0 | 0.00 | 0.15 | 0.00 | 79 | 1015.4 |
| 20260502103806 | 13 | 161 | 0.0 | 0.0 | 0.00 | 0.15 | 0.00 | 79 | 1015.3 |
| 20260502103306 | 13 | 158 | 0.0 | 0.0 | 0.00 | 0.15 | 0.00 | 79 | 1015.3 |
| 20260502102806 | 13 | 102 | 0.0 | 0.0 | 0.00 | 0.15 | 0.00 | 79 | 1015.4 |
| 20260502102306 | 13 | 170 | 0.0 | 0.0 | 0.00 | 0.15 | 0.00 | 80 | 1015.5 |
| 20260502102029 | 13 | 137 | 0.0 | 0.0 | 0.00 | 0.15 | 0.00 | 80 | 1015.4 |
| 20260502101305 | 13 | 215 | 0.0 | 0.0 | 0.00 | 0.15 | 0.00 | 80 | 1015.7 |
| 20260502100806 | 13 | 191 | 0.0 | 0.0 | 0.00 | 0.15 | 0.00 | 82 | 1015.8 |
| 20260502100306 | 13 | 188 | 0.0 | 0.0 | 0.00 | 0.15 | 0.00 | 83 | 1015.8 |
| 20260502091303 | 12 | 113 | 0.0 | 0.0 | 0.00 | 0.15 | 0.00 | 85 | 1015.9 |
| 20260502091022 | 12 | 112 | 0.0 | 0.0 | 0.00 | 0.15 | 0.00 | 86 | 1015.9 |
| 20260502090302 | 12 | 141 | 0.0 | 0.0 | 0.00 | 0.15 | 0.00 | 85 | 1015.9 |
| 20260502090108 | 12 | 92 | 0.0 | 0.0 | 0.00 | 0.15 | 0.00 | 85 | 1015.9 |
| 20260502071527 | 8 | 139 | 0.0 | 0.0 | 0.00 | 0.15 | 0.00 | 97 | 1016.2 |
| 20260502070758 | 8 | 124 | 0.0 | 0.0 | 0.00 | 0.15 | 0.00 | 97 | 1016.2 |
| 20260502070257 | 8 | 146 | 0.0 | 0.0 | 0.00 | 0.15 | 0.00 | 97 | 1016.2 |
| 20260502065751 | 8 | 134 | 0.0 | 0.0 | 0.00 | 0.15 | 0.00 | 97 | 1016.1 |
| 20260502065248 | 8 | 108 | 0.0 | 0.0 | 0.00 | 0.15 | 0.00 | 97 | 1016.2 |
| 20260502064751 | 8 | 131 | 0.0 | 0.0 | 0.00 | 0.15 | 0.00 | 97 | 1016.2 |
| 20260502064250 | 8 | 132 | 0.0 | 0.0 | 0.00 | 0.15 | 0.00 | 97 | 1016.2 |
| 20260502063749 | 8 | 125 | 0.0 | 0.0 | 0.00 | 0.15 | 0.00 | 97 | 1016.2 |
| 20260502063516 | 8 | 143 | 0.0 | 0.0 | 0.00 | 0.15 | 0.00 | 97 | 1016.2 |
| 20260502062749 | 8 | 126 | 0.0 | 0.0 | 0.00 | 0.15 | 0.00 | 97 | 1016.1 |
| 20260502062515 | 8 | 163 | 0.0 | 0.0 | 0.00 | 0.15 | 0.00 | 97 | 1016.1 |
| 20260502062244 | 8 | 156 | 0.0 | 0.0 | 0.00 | 0.15 | 0.00 | 97 | 1016.1 |
| 20260502061251 | 7 | 139 | 0.0 | 0.0 | 0.00 | 0.15 | 0.00 | 97 | 1016.1 |
| 20260502060749 | 7 | 150 | 0.0 | 0.0 | 0.00 | 0.15 | 0.00 | 97 | 1016.1 |
| 20260502060249 | 7 | 141 | 0.0 | 0.0 | 0.00 | 0.15 | 0.00 | 97 | 1016.1 |
| 20260502055748 | 7 | 135 | 0.0 | 0.0 | 0.00 | 0.15 | 0.00 | 97 | 1016.1 |
| 20260502055249 | 7 | 159 | 0.0 | 0.0 | 0.00 | 0.15 | 0.00 | 97 | 1016.1 |
| 20260502054749 | 7 | 165 | 0.0 | 0.0 | 0.00 | 0.15 | 0.00 | 97 | 1016.1 |
| 20260502054249 | 7 | 186 | 0.0 | 0.0 | 0.00 | 0.15 | 0.00 | 97 | 1016.1 |
| 20260502053750 | 7 | 131 | 0.0 | 0.0 | 0.00 | 0.15 | 0.00 | 97 | 1016.1 |
| 20260502053251 | 7 | 146 | 0.0 | 0.0 | 0.00 | 0.15 | 0.00 | 97 | 1016.0 |
| 20260502052751 | -17 | 0.0 | 0.0 | 0.00 | 0.15 | 0.00 | 1016.1 | ||
| 20260502052249 | -17 | 0.0 | 0.0 | 0.00 | 0.15 | 0.00 | 1016.1 | ||
| 20260502051752 | -17 | 0.0 | 0.0 | 0.00 | 0.15 | 0.00 | 1016.1 | ||
| 20260502051157 | -17 | 0.0 | 0.0 | 0.00 | 0.15 | 0.00 | 1016.0 | ||
| 20260502050654 | -17 | 0.0 | 0.0 | 0.00 | 0.15 | 0.00 | 1016.0 | ||
| 20260502050151 | -17 | 0.0 | 0.0 | 0.00 | 0.15 | 0.00 | 1015.9 | ||
| 20260502045643 | -17 | 0.0 | 0.0 | 0.00 | 0.15 | 0.00 | 1016.0 | ||
| 20260502045535 | -17 | 0.0 | 0.0 | 0.00 | 0.15 | 0.00 | 1016.0 | ||
| 20260502044547 | -17 | 0.0 | 0.0 | 0.00 | 0.15 | 0.00 | 1016.0 | ||
| 20260502044037 | -17 | 0.0 | 0.0 | 0.00 | 0.15 | 0.00 | 1016.0 | ||
| 20260502043701 | -17 | 0.0 | 0.0 | 0.00 | 0.15 | 0.00 | 1016.0 | ||
| 20260502043544 | -17 | 0.0 | 0.0 | 0.00 | 0.15 | 0.00 | 1016.0 | ||
| 20260502042357 | -17 | 0.0 | 0.0 | 0.00 | 0.15 | 0.00 | 1016.0 | ||
| 20260502041855 | -17 | 0.0 | 0.0 | 0.00 | 0.15 | 0.00 | 1016.0 | ||
| 20260502041611 | -17 | 0.0 | 0.0 | 0.00 | 0.15 | 0.00 | 1016.1 | ||
| 20260502040752 | -17 | 0.0 | 0.0 | 0.00 | 0.15 | 0.00 | 1016.1 | ||
| 20260502040518 | -17 | 0.0 | 0.0 | 0.00 | 0.15 | 0.00 | 1016.1 | ||
| 20260502035701 | -17 | 0.0 | 0.0 | 0.00 | 0.15 | 0.00 | 1016.2 | ||
| 20260502035158 | -17 | 0.0 | 0.0 | 0.00 | 0.15 | 0.00 | 1016.2 | ||
| 20260502034659 | -17 | 0.0 | 0.0 | 0.00 | 0.15 | 0.00 | 1016.1 | ||
| 20260502034155 | -17 | 0.0 | 0.0 | 0.00 | 0.15 | 0.00 | 1016.2 | ||
| 20260502033653 | -17 | 0.0 | 0.0 | 0.00 | 0.15 | 0.00 | 1016.2 | ||
| 20260502033100 | -17 | 0.0 | 0.0 | 0.00 | 0.15 | 0.00 | 1016.2 | ||
| 20260502032538 | -17 | 0.0 | 0.0 | 0.00 | 0.15 | 0.00 | 1016.2 | ||
| 20260502031946 | -17 | 0.0 | 0.0 | 0.00 | 0.15 | 0.00 | 1016.2 | ||
| 20260502031346 | 8 | 0.0 | 0.0 | 0.00 | 0.15 | 0.00 | 96 | 1016.2 | |
| 20260502030759 | 8 | 226 | 0.0 | 0.0 | 0.00 | 0.15 | 0.00 | 96 | 1016.3 |
| 20260502030526 | 8 | 226 | 0.0 | 0.0 | 0.00 | 0.15 | 0.00 | 96 | 1016.3 |
| 20260502030108 | 8 | 226 | 0.0 | 0.0 | 0.00 | 0.15 | 0.00 | 97 | 1016.2 |
| 20260502025245 | 8 | 226 | 0.0 | 0.0 | 0.00 | 0.15 | 0.00 | 97 | 1016.2 |
| 20260502024740 | 8 | 226 | 0.0 | 0.0 | 0.00 | 0.15 | 0.00 | 97 | 1016.2 |
| 20260502024500 | 8 | 226 | 0.0 | 0.0 | 0.00 | 0.15 | 0.00 | 97 | 1016.2 |
| 20260502023954 | 8 | 226 | 0.0 | 0.0 | 0.00 | 0.15 | 0.00 | 97 | 1016.2 |
| 20260502023223 | 8 | 226 | 0.0 | 0.0 | 0.00 | 0.15 | 0.00 | 97 | 1016.2 |
| 20260502022936 | 8 | 227 | 0.0 | 0.0 | 0.00 | 0.15 | 0.00 | 97 | 1016.2 |
| 20260502022431 | 8 | 226 | 0.0 | 0.0 | 0.00 | 0.15 | 0.00 | 97 | 1016.3 |
| 20260502021705 | 8 | 226 | 0.0 | 0.0 | 0.00 | 0.15 | 0.00 | 97 | 1016.4 |
| 20260502021158 | 8 | 226 | 0.0 | 0.0 | 0.00 | 0.15 | 0.00 | 97 | 1016.5 |
| 20260502020652 | 9 | 226 | 0.0 | 0.0 | 0.00 | 0.15 | 0.00 | 97 | 1016.5 |
| 20260502020349 | 9 | 226 | 0.0 | 0.0 | 0.00 | 0.15 | 0.00 | 96 | 1016.6 |
| 20260502020233 | 9 | 226 | 0.0 | 0.0 | 0.00 | 0.15 | 0.00 | 97 | 1016.5 |
| 20260502015134 | 9 | 226 | 0.0 | 0.0 | 0.00 | 0.15 | 0.00 | 96 | 1016.7 |
| 20260502014628 | 9 | 226 | 0.0 | 0.0 | 0.00 | 0.15 | 0.00 | 96 | 1016.7 |
| 20260502014341 | 9 | 224 | 0.0 | 0.0 | 0.00 | 0.15 | 0.00 | 96 | 1016.7 |
| 20260502013615 | 9 | 229 | 0.0 | 0.0 | 0.00 | 0.15 | 0.00 | 96 | 1016.8 |
| 20260502013109 | 9 | 242 | 0.0 | 0.0 | 0.00 | 0.15 | 0.00 | 97 | 1016.8 |
| 20260502012604 | 9 | 236 | 0.0 | 0.0 | 0.00 | 0.15 | 0.00 | 96 | 1016.9 |
| 20260502012057 | 10 | 250 | 0.0 | 0.0 | 0.00 | 0.15 | 0.00 | 96 | 1016.9 |
| 20260502011552 | 10 | 260 | 0.0 | 0.0 | 0.00 | 0.15 | 0.00 | 96 | 1017.0 |
| 20260502011047 | 10 | 262 | 0.0 | 0.0 | 0.00 | 0.15 | 0.00 | 96 | 1017.0 |
| 20260502010542 | 10 | 248 | 0.0 | 0.0 | 0.00 | 0.15 | 0.00 | 96 | 1017.0 |
| 20260502010108 | 10 | 255 | 0.0 | 0.0 | 0.00 | 0.15 | 0.00 | 96 | 1017.1 |
| 20260502005528 | 10 | 255 | 0.0 | 0.0 | 0.00 | 0.15 | 0.00 | 96 | 1017.2 |
| 20260502005021 | 10 | 239 | 0.0 | 0.0 | 0.00 | 0.15 | 0.00 | 96 | 1017.2 |
| 20260502004516 | 10 | 259 | 0.0 | 0.0 | 0.00 | 0.15 | 0.00 | 96 | 1017.1 |
| 20260502004011 | 10 | 215 | 0.0 | 0.0 | 0.00 | 0.15 | 0.00 | 96 | 1017.2 |
| 20260502003505 | 11 | 203 | 0.0 | 0.0 | 0.00 | 0.15 | 0.00 | 97 | 1017.2 |
| 20260502002958 | 11 | 252 | 0.0 | 0.0 | 0.00 | 0.15 | 0.00 | 97 | 1017.2 |
| 20260502002450 | 10 | 245 | 0.0 | 0.0 | 0.00 | 0.15 | 0.00 | 97 | 1017.3 |
| 20260502001947 | 10 | 179 | 0.0 | 0.0 | 0.00 | 0.15 | 0.00 | 97 | 1017.3 |
| 20260502001439 | 10 | 179 | 0.0 | 0.0 | 0.00 | 0.15 | 0.00 | 96 | 1017.3 |
| 20260502000932 | 10 | 179 | 0.0 | 0.0 | 0.00 | 0.15 | 0.00 | 96 | 1017.3 |
| 20260502000431 | 10 | 174 | 0.0 | 0.0 | 0.00 | 0.15 | 0.00 | 96 | 1017.3 |
| 20260501235922 | 10 | 174 | 0.0 | 0.0 | 0.00 | 0.15 | 0.00 | 96 | 1017.4 |
| 20260501235416 | 10 | 174 | 0.0 | 0.0 | 0.00 | 0.15 | 0.00 | 96 | 1017.3 |
| 20260501234909 | 10 | 175 | 0.0 | 0.0 | 0.00 | 0.15 | 0.00 | 96 | 1017.3 |
| 20260501234403 | 11 | 174 | 0.0 | 0.0 | 0.00 | 0.15 | 0.00 | 96 | 1017.4 |
| 20260501233858 | 11 | 174 | 0.0 | 0.0 | 0.00 | 0.15 | 0.00 | 96 | 1017.4 |
| 20260501233612 | 11 | 175 | 0.0 | 0.0 | 0.00 | 0.15 | 0.00 | 96 | 1017.4 |
| 20260501232848 | 11 | 174 | 0.0 | 0.0 | 0.00 | 0.15 | 0.00 | 96 | 1017.5 |
| 20260501232610 | 11 | 174 | 0.0 | 0.0 | 0.00 | 0.15 | 0.00 | 96 | 1017.4 |
| 20260501231833 | 11 | 174 | 0.0 | 0.0 | 0.00 | 0.15 | 0.00 | 96 | 1017.4 |
| 20260501231328 | 11 | 155 | 0.0 | 0.0 | 0.00 | 0.15 | 0.00 | 96 | 1017.4 |
| 20260501230821 | 11 | 155 | 0.0 | 0.0 | 0.00 | 0.15 | 0.00 | 96 | 1017.5 |
| 20260501230804 | 11 | 155 | 0.0 | 0.0 | 0.00 | 0.15 | 0.00 | 96 | 1017.5 |
| 20260501225810 | 11 | 155 | 0.0 | 0.0 | 0.00 | 0.15 | 0.15 | 96 | 1017.5 |
| 20260501225306 | 11 | 155 | 0.0 | 0.0 | 0.00 | 0.15 | 0.15 | 96 | 1017.5 |
| 20260501224758 | 11 | 155 | 0.0 | 0.0 | 0.00 | 0.15 | 0.15 | 96 | 1017.5 |
| 20260501224253 | 11 | 155 | 0.0 | 0.0 | 0.00 | 0.15 | 0.15 | 96 | 1017.5 |
| 20260501223746 | 11 | 129 | 0.0 | 0.0 | 0.00 | 0.15 | 0.15 | 96 | 1017.5 |
| 20260501223240 | 11 | 129 | 0.0 | 0.0 | 0.00 | 0.15 | 0.15 | 95 | 1017.5 |
| 20260501222734 | 11 | 129 | 0.0 | 0.0 | 0.00 | 0.15 | 0.15 | 95 | 1017.6 |
| 20260501222227 | 11 | 129 | 0.0 | 0.0 | 0.00 | 0.15 | 0.15 | 95 | 1017.5 |
| 20260501221722 | 11 | 129 | 0.0 | 0.0 | 0.00 | 0.15 | 0.15 | 95 | 1017.6 |
| 20260501221216 | 11 | 128 | 0.0 | 0.0 | 0.00 | 0.15 | 0.15 | 95 | 1017.6 |
| 20260501220709 | 11 | 128 | 0.0 | 0.0 | 0.00 | 0.15 | 0.15 | 95 | 1017.6 |
| 20260501220423 | 11 | 129 | 0.0 | 0.0 | 0.00 | 0.15 | 0.15 | 95 | 1017.6 |
| 20260501215659 | 11 | 128 | 0.0 | 0.0 | 0.00 | 0.15 | 0.15 | 95 | 1017.6 |
| 20260501215151 | 11 | 129 | 0.0 | 0.0 | 0.00 | 0.15 | 0.15 | 95 | 1017.7 |
| 20260501214901 | 11 | 129 | 0.0 | 0.0 | 0.00 | 0.15 | 0.15 | 95 | 1017.8 |
| 20260501214404 | 11 | 128 | 0.0 | 0.0 | 0.00 | 0.15 | 0.15 | 95 | 1017.9 |
| 20260501213634 | 12 | 128 | 0.0 | 0.0 | 0.00 | 0.15 | 0.15 | 95 | 1017.9 |
| 20260501213128 | 12 | 128 | 0.0 | 0.0 | 0.00 | 0.15 | 0.15 | 95 | 1017.9 |
| 20260501212850 | 12 | 129 | 0.0 | 0.0 | 0.00 | 0.15 | 0.15 | 95 | 1017.9 |
| 20260501212116 | 12 | 126 | 0.0 | 0.0 | 0.00 | 0.15 | 0.15 | 95 | 1017.9 |
| 20260501211612 | 12 | 126 | 0.0 | 0.0 | 0.00 | 0.15 | 0.15 | 95 | 1017.8 |
| 20260501211105 | 12 | 125 | 0.0 | 0.0 | 0.00 | 0.15 | 0.15 | 94 | 1017.9 |